Flag Weather past 2 weeks in Eberswalde, Brandenburg, Germany

Now
41 °F

Partly sunny.


Feels Like: 34 °F
Forecast: 31 / 39 °F
Wind: 12 mph from East

Location: Berlin-Tegel

Current Time: Nov 26, 2014 at 3:12:22 PM

Latest Report: Nov 26, 2014 at 2:50 PM


Visibility: N/A

Pressure: 30.21 "Hg

Humidity: 81%

Dew point: 36 °F

Location of EberswaldeLocation

Historic Weather in Eberswalde — Graph

°F

Eberswalde temperature yesterday

Maximum temperature yesterday: 41 °F (at 10:20 AM)
Minimum temperature yesterday: 36 °F (at 3:20 AM)
Average temperature yesterday: 39 °F

Past Weeks' High & Low Weather Summary

 TemperatureHumidityPressure
High54 °F (Nov 11, 2:20 PM)100% (Nov 11, 10:50 PM)30.36 "Hg (Nov 11, 10:50 PM)
Low36 °F (Nov 25, 3:20 AM)66% (Nov 23, 1:50 PM)29.56 "Hg (Nov 16, 1:20 PM)
Average45 °F89%30.03 "Hg
* Reported Nov 11 1:20 PM — Nov 26 1:50 PM, Eberswalde, Weather by CustomWeather, © 2014

Note: Actual official high and low records may vary slightly from our data, if they occured in-between our weather recording intervals... More about our weather records

Advertising

Eberswalde weather history for previous 24 hours

 ConditionsComfort  
Time TempWeatherWind HumidityBarometerVisibility
1:50 PM
Nov 26
41 °FPartly sunny.12 mph81%30.21 "HgN/A
1:20 PM41 °FPartly sunny.12 mph87%30.24 "HgN/A
12:50 PM41 °FPartly sunny.10 mph87%30.24 "HgN/A
12:20 PM41 °FPartly sunny.12 mph81%30.24 "HgN/A
11:50 AM41 °FPartly sunny.10 mph87%30.24 "HgN/A
11:20 AM41 °FPartly sunny.10 mph87%30.24 "HgN/A
10:50 AM41 °FPartly sunny.12 mph87%30.27 "HgN/A
10:20 AM41 °FPartly sunny.12 mph87%30.27 "HgN/A
9:50 AM39 °FPartly sunny.12 mph93%30.27 "HgN/A
9:20 AM39 °FPartly sunny.10 mph93%30.27 "HgN/A
8:50 AM39 °FPartly sunny.9 mph93%30.27 "Hg6 mi
8:20 AM39 °FPartly sunny.9 mph93%30.27 "Hg6 mi
7:50 AM39 °FPartly sunny.10 mph93%30.27 "HgN/A
7:20 AM39 °FPassing clouds.7 mph93%30.27 "HgN/A
6:50 AM39 °FPassing clouds.9 mph93%30.27 "HgN/A
6:20 AM39 °FPartly cloudy.10 mph93%30.27 "HgN/A
5:50 AM41 °FPassing clouds.10 mph87%30.27 "HgN/A
5:20 AM41 °FPassing clouds.7 mph87%30.27 "HgN/A
4:20 AM41 °FPassing clouds.7 mph87%30.27 "HgN/A
3:50 AM41 °FPassing clouds.6 mph87%30.30 "HgN/A
3:20 AM41 °FPassing clouds.7 mph87%30.30 "HgN/A
2:50 AM41 °FPassing clouds.6 mph87%30.30 "HgN/A
2:20 AM41 °FPassing clouds.2 mph93%30.30 "HgN/A
1:50 AM39 °FPassing clouds.2 mph93%30.30 "HgN/A
1:20 AM39 °FPassing clouds.1 mph93%30.30 "HgN/A
12:50 AM39 °FPassing clouds.1 mph93%30.33 "HgN/A
12:20 AM39 °FPassing clouds.1 mph93%30.33 "HgN/A
11:50 PM
Nov 25
39 °FPassing clouds.1 mph93%30.33 "HgN/A
11:20 PM39 °FPassing clouds.1 mph93%30.33 "HgN/A
10:50 PM39 °FPassing clouds.2 mph93%30.33 "HgN/A
10:20 PM39 °FPartly cloudy.3 mph93%30.33 "HgN/A
9:50 PM41 °FPassing clouds.5 mph87%30.33 "HgN/A
9:20 PM41 °FPartly cloudy.3 mph93%30.33 "HgN/A
8:50 PM41 °FPartly cloudy.2 mph93%30.33 "Hg6 mi
8:20 PM41 °FPartly cloudy.2 mph93%30.33 "Hg6 mi
7:50 PM41 °FPartly cloudy.2 mph93%30.33 "Hg6 mi
7:20 PM39 °FPartly cloudy.5 mph100%30.33 "Hg5 mi
6:50 PM41 °FPassing clouds.7 mph93%30.33 "Hg5 mi
6:20 PM41 °FDrizzle. Low clouds.7 mph93%30.36 "Hg4 mi
5:50 PM41 °FDrizzle. Mostly cloudy.6 mph93%30.36 "Hg4 mi
5:20 PM41 °FPassing clouds.3 mph100%30.36 "Hg4 mi
4:50 PM41 °FDrizzle. Fog.2 mph100%30.36 "Hg2 mi
4:20 PM39 °FDrizzle. Fog.2 mph100%30.33 "Hg1 mi
3:50 PM39 °FDrizzle. Fog.3 mph100%30.33 "Hg1 mi
3:20 PM39 °FFog.1 mph100%30.33 "Hg1 mi
Weather by CustomWeather, © 2014

See weather overviewHow to use our weather pages